sat.trackr.live / text

‹ back to catalog

STARLINK-34706

NORAD 64845 · 2025-152D

PAYLOAD ACTIVE UNKNOWN

§ Identity

Operator
Country
US
Launch date
2025-07-19
Launch site
AFWTR
Launch vehicle
Mass (kg)
RCS (m²)

Purposes: comms

External: N2YO · Heavens-Above · Gunter

§ Orbital elements

Epoch: 2026-05-25T02:48:22.381344Z

Period
95.64 min
Inclination
97.4499°
Eccentricity
0.0002349
Mean motion
15.05655548 rev/d
Perigee alt
547.9 km
Apogee alt
551.1 km
Semi-major
6,927.6 km
B*
1.4603e-4
RAAN
0.4015°
Arg perigee
68.8045°
Mean anomaly
291.3433°
Rev number
4,691

§ Raw data

STARLINK-347061 64845U 25152D   26145.11692571  .00002049  00000+0  14603-3 0  99932 64845  97.4499   0.4015 0002349  68.8045 291.3433 15.05655548 46919

JSON: /api/v1/satellites/64845 · /tle

For live sub-satellite position, see the globe view (requires WebGL).

§ Visibility from observer

Set your observer location to see the next 7 days of passes ≥ 10°. The values pass through the URL so the page stays shareable.

No JS? Fill the form by hand. The geolocation button needs JavaScript.